Location: Bédeille
(43.0872°N, 1.1041°E)
Time: 02:40:45
(UTC+00:00)

CZ-4B DEB - Pass Details

Date: 03 February 2023
Orbit: 839 x 859 km, 99.1° (Epoch: 27 March)

Event Time Altitude Azimuth Distance (km) Brightness Sun altitude
Rises 17:45:33 0° 147° (SSE) 3,380 7.2 -6.9°
Reaches altitude 10° 17:47:57 10° 142° (SE) 2,450 6.4 -7.3°
Maximum altitude 17:53:09 48° 69° (ENE) 1,091 4.4 -8.3°
Drops below altitude 10° 17:58:22 10° 357° (N) 2,472 6.5 -9.2°
Sets 18:00:49 0° 352° (N) 3,414 7.3 -9.6°
